GW0888 Weather Reports


time (UTC)temp
F
wind
direction
speed
knots
gust
knots
rain 1hr
in
rain 24hr
in
rain mn
in
humidity
%
barometer
mb
20260903101554 73 341 0.0 0.0 0.00 0.00 0.00 90 1016.1
20260903100051 74 341 0.0 0.9 0.00 0.00 0.00 90 1016.0
20260903094620 74 341 0.0 0.9 0.00 0.00 0.00 90 1015.8
20260903093027 74 279 0.0 0.9 0.00 0.00 0.00 90 1016.0
20260903091526 74 305 0.0 1.7 0.00 0.00 0.00 90 1016.1
20260903090023 74 305 0.0 0.0 0.00 0.00 0.00 90 1016.0
20260903084533 74 305 0.0 0.9 0.00 0.00 0.00 90 1015.8
20260903083012 75 305 0.0 1.7 0.00 0.00 0.00 90 1015.7
20260903081508 75 306 0.0 0.9 0.00 0.00 0.00 90 1015.8
20260903080007 75 329 0.0 0.9 0.00 0.00 0.00 90 1015.8
20260903074508 75 329 0.0 0.9 0.00 0.00 0.00 90 1015.8
20260903073006 75 329 0.0 0.9 0.00 0.00 0.00 90 1015.7
20260903071535 76 298 0.0 1.7 0.00 0.00 0.00 90 1015.6
20260903070032 76 331 0.0 0.9 0.00 0.00 0.00 89 1015.7
20260903064501 76 331 0.0 0.0 0.00 0.00 0.00 89 1015.8
20260903063108 76 331 0.0 0.0 0.00 0.00 0.00 89 1015.7
20260903061556 76 331 0.0 0.9 0.00 0.00 0.00 89 1015.7
20260903060054 76 331 0.0 0.9 0.00 0.00 0.00 89 1015.6
20260903054557 77 331 0.0 0.9 0.00 0.00 0.00 89 1015.6
20260903053052 77 316 0.0 0.9 0.00 0.00 0.00 89 1015.6
20260903051549 77 324 0.0 0.9 0.00 0.00 0.00 88 1015.6
20260903050048 77 321 0.0 0.9 0.00 0.00 0.00 88 1015.5
20260903044549 77 344 0.0 0.9 0.00 0.00 0.00 88 1015.4
20260903043045 78 344 0.0 0.9 0.00 0.00 0.00 88 1015.4
20260903041546 78 344 0.0 0.9 0.00 0.00 0.00 88 1015.4
20260903040040 78 344 0.0 0.9 0.00 0.00 0.00 87 1015.5
20260903034539 78 313 0.0 0.9 0.00 0.00 0.00 87 1015.6
20260903033037 79 300 0.0 0.9 0.00 0.00 0.00 87 1015.5
20260903031536 79 300 0.0 1.7 0.00 0.00 0.00 86 1015.6
20260903030031 80 344 0.0 0.9 0.00 0.00 0.00 86 1015.6
20260903024528 80 312 0.0 0.0 0.00 0.00 0.00 85 1015.7
20260903023031 80 312 0.0 0.9 0.00 0.00 0.00 85 1015.6
20260903021526 80 327 0.0 0.9 0.00 0.00 0.00 84 1015.6
20260903020052 81 317 0.0 0.9 0.00 0.00 0.00 83 1015.6
20260903014524 82 329 0.0 0.9 0.00 0.00 0.00 82 1015.5
20260903013023 83 328 0.0 0.9 0.00 0.00 0.00 81 1015.5
20260903011522 83 295 0.0 0.9 0.00 0.00 0.00 78 1015.3
20260903010021 84 295 0.0 1.7 0.00 0.00 0.00 77 1015.0
20260903004520 85 295 0.0 1.7 0.00 0.00 0.00 76 1014.9
20260903003020 86 286 0.0 1.7 0.00 0.00 0.00 74 1014.8
20260903001518 87 298 0.9 2.6 0.00 0.00 0.00 72 1014.7
20260903000018 88 255 0.0 1.7 0.00 0.00 0.00 69 1014.7
20260902234517 90 283 0.0 2.6 0.00 0.00 0.00 66 1014.6
20260902233017 92 238 0.9 2.6 0.00 0.00 0.00 64 1014.7
20260902231513 93 260 0.0 1.7 0.00 0.00 0.00 60 1014.7
20260902230013 94 234 0.0 2.6 0.00 0.00 0.00 56 1014.8
20260902224514 95 175 0.0 1.7 0.00 0.00 0.00 53 1014.8
20260902223011 95 251 0.0 6.1 0.00 0.00 0.00 53 1014.8
20260902221516 95 267 1.7 6.1 0.00 0.00 0.00 52 1014.8
20260902220008 95 213 0.0 4.3 0.00 0.00 0.00 50 1014.8
20260902214506 96 305 0.9 3.5 0.00 0.00 0.00 50 1014.9
20260902213006 97 82 0.0 6.1 0.00 0.00 0.00 49 1014.9
20260902211503 97 262 1.7 7.0 0.00 0.00 0.00 48 1014.9
20260902210002 97 215 2.6 8.7 0.00 0.00 0.00 49 1015.1
20260902204500 97 228 3.5 8.7 0.00 0.00 0.00 50 1015.1
20260902203058 97 231 1.7 5.2 0.00 0.00 0.00 50 1015.4
20260902201557 97 253 0.9 8.7 0.00 0.00 0.00 50 1015.6
20260902200053 98 252 0.9 8.7 0.00 0.00 0.00 49 1015.7
20260902194557 97 244 1.7 6.1 0.00 0.00 0.00 50 1015.8
20260902193049 98 238 3.5 7.0 0.00 0.00 0.00 50 1016.0
20260902191555 97 257 6.1 11.3 0.00 0.00 0.00 52 1016.0
20260902190043 96 142 2.6 5.2 0.00 0.00 0.00 53 1016.1
20260902184541 96 200 1.7 4.3 0.00 0.00 0.00 51 1016.2
20260902183055 96 229 0.0 3.5 0.00 0.00 0.00 51 1016.4
20260902181540 97 230 1.7 7.0 0.00 0.00 0.00 50 1016.5
20260902180137 95 229 3.5 6.1 0.00 0.00 0.00 53 1016.6
20260902174536 95 153 0.9 1.7 0.00 0.00 0.00 53 1016.8
20260902173050 96 231 1.7 4.3 0.00 0.00 0.00 52 1017.1
20260902171535 96 270 1.7 6.1 0.00 0.00 0.00 51 1017.3
20260902170030 96 313 0.9 3.5 0.00 0.00 0.00 52 1017.4
20260902164529 93 281 1.7 4.3 0.00 0.00 0.00 57 1017.7
20260902163027 94 233 1.7 6.1 0.00 0.00 0.00 56 1018.0
20260902161529 96 146 0.9 4.3 0.00 0.00 0.00 54 1018.1
20260902160018 96 279 1.7 6.1 0.00 0.00 0.00 56 1018.3
20260902154524 95 267 1.7 7.0 0.00 0.00 0.00 58 1018.3
20260902153011 95 251 5.2 7.8 0.00 0.00 0.00 56 1018.4
20260902151507 93 271 2.6 6.1 0.00 0.00 0.00 59 1018.4
20260902150052 92 254 3.5 7.8 0.00 0.00 0.00 62 1018.3
20260902144553 90 194 0.9 3.5 0.00 0.00 0.00 65 1018.2
20260902143043 89 208 1.7 6.1 0.00 0.00 0.00 66 1018.2
20260902141539 88 265 0.0 3.5 0.00 0.00 0.00 69 1018.2
20260902140039 87 317 0.0 2.6 0.00 0.00 0.00 71 1018.3
20260902134533 85 302 0.9 3.5 0.00 0.00 0.00 74 1018.2
20260902133028 83 252 0.9 1.7 0.00 0.00 0.00 78 1018.2
20260902131523 81 360 0.0 0.9 0.00 0.00 0.00 81 1018.0
20260902130030 78 331 0.0 0.9 0.00 0.00 0.00 85 1018.2
20260902124517 77 293 0.0 0.9 0.00 0.00 0.00 87 1018.1
20260902123025 75 251 0.0 1.7 0.00 0.00 0.00 89 1018.2
20260902121507 73 331 0.0 0.9 0.00 0.00 0.00 90 1018.0
20260902120012 72 331 0.0 0.9 0.00 0.00 0.00 91 1018.1
20260902114513 71 331 0.0 0.9 0.00 0.00 0.00 91 1017.9
20260902113004 71 338 0.0 0.9 0.00 0.00 0.00 91 1017.8
20260902111502 71 248 0.0 0.9 0.00 0.00 0.00 91 1017.5
20260902110105 71 317 0.0 0.9 0.00 0.00 0.00 90 1017.5
20260902104601 71 324 0.0 0.0 0.00 0.00 0.00 91 1017.4
20260902103105 72 324 0.0 0.9 0.00 0.00 0.00 90 1017.6